sat.trackr.live / text

‹ back to catalog

SKY MUSTER 2 (NBN1B)

NORAD 41794 · 2016-060B

PAYLOAD ACTIVE UNKNOWN

§ Identity

Operator
Country
AUS
Launch date
2016-10-05
Launch site
FRGUI
Launch vehicle
Mass (kg)
RCS (m²)
0.00

Purposes: comms

External: N2YO · Heavens-Above · Gunter

§ Orbital elements

Epoch: 2026-09-19T08:37:10.897824Z

Period
1,436.10 min
Inclination
0.0121°
Eccentricity
0.0001575
Mean motion
1.00271891 rev/d
Perigee alt
35,779.9 km
Apogee alt
35,793.2 km
Semi-major
42,164.7 km
B*
0.0000e+0
RAAN
227.9478°
Arg perigee
295.8522°
Mean anomaly
108.5782°
Rev number
3,646

§ Raw data

SKY MUSTER 2 (NBN1B)1 41794U 16060B   26262.35915391 -.00000248  00000+0  00000+0 0  99952 41794   0.0121 227.9478 0001575 295.8522 108.5782  1.00271891 36460

JSON: /api/v1/satellites/41794 · /tle

For live sub-satellite position, see the globe view (requires WebGL).

§ Visibility from observer

Set your observer location to see the next 7 days of passes ≥ 10°. The values pass through the URL so the page stays shareable.

No JS? Fill the form by hand. The geolocation button needs JavaScript.